EN

Hourly Weather Alyabevo

Today, 16 January, Saturday

Time Temperature Precipitation Wind Pressure Humidity
00:00 -11°C° 0.4 mm 6 mps 736 mmHg 90%
01:00 -12°C° 0.4 mm 7 mps 736 mmHg 90%
02:00 -11°C° 0.1 mm 7 mps 735 mmHg 91%
03:00 -11°C° 0.1 mm 7 mps 734 mmHg 91%
04:00 -10°C° 0.1 mm 8 mps 734 mmHg 92%
05:00 -10°C° 0.3 mm 8 mps 734 mmHg 93%
06:00 -8°C° 0.3 mm 7 mps 733 mmHg 94%
07:00 -7°C° 0.3 mm 7 mps 733 mmHg 95%
08:00 -7°C° 0.1 mm 8 mps 733 mmHg 94%
09:00 -6°C° 0.1 mm 8 mps 734 mmHg 93%
10:00 -6°C° 0.1 mm 9 mps 735 mmHg 92%
11:00 -8°C° 0.1 mm 9 mps 735 mmHg 90%
12:00 -10°C° 0.1 mm 9 mps 736 mmHg 89%
13:00 -11°C° 0.1 mm 9 mps 736 mmHg 88%
14:00 -12°C° 0 mm 8 mps 737 mmHg 89%
15:00 -15°C° 0 mm 8 mps 738 mmHg 90%
16:00 -15°C° 0 mm 7 mps 738 mmHg 91%
17:00 -15°C° 0 mm 7 mps 738 mmHg 92%
18:00 -15°C° 0 mm 7 mps 738 mmHg 92%
19:00 -15°C° 0 mm 7 mps 738 mmHg 93%
20:00 -15°C° 0.1 mm 8 mps 738 mmHg 92%
21:00 -13°C° 0.1 mm 8 mps 738 mmHg 92%
22:00 -12°C° 0.1 mm 8 mps 738 mmHg 91%
23:00 -12°C° 0.2 mm 8 mps 738 mmHg 92%

Tomorrow, 17 January, Sunday

Time Temperature Precipitation Wind Pressure Humidity
00:00 -12°C° 0.2 mm 9 mps 737 mmHg 92%
01:00 -11°C° 0.2 mm 9 mps 737 mmHg 92%
02:00 -15°C° 0.1 mm 9 mps 737 mmHg 92%
03:00 -17°C° 0.1 mm 9 mps 737 mmHg 92%
04:00 -20°C° 0.1 mm 9 mps 738 mmHg 92%
05:00 -21°C° 0.1 mm 8 mps 738 mmHg 92%
06:00 -22°C° 0.1 mm 8 mps 738 mmHg 93%
07:00 -23°C° 0.1 mm 8 mps 739 mmHg 93%
08:00 -23°C° 0 mm 7 mps 739 mmHg 94%
09:00 -24°C° 0 mm 7 mps 740 mmHg 94%
10:00 -24°C° 0 mm 7 mps 741 mmHg 95%
11:00 -23°C° 0 mm 6 mps 741 mmHg 95%
12:00 -23°C° 0 mm 6 mps 741 mmHg 95%
13:00 -22°C° 0 mm 5 mps 742 mmHg 95%
14:00 -24°C° 0 mm 5 mps 742 mmHg 96%
15:00 -23°C° 0 mm 4 mps 743 mmHg 97%
16:00 -23°C° 0 mm 3 mps 743 mmHg 98%
17:00 -24°C° 0 mm 3 mps 743 mmHg 98%
18:00 -25°C° 0 mm 3 mps 744 mmHg 99%
19:00 -25°C° 0 mm 2 mps 744 mmHg 99%
20:00 -25°C° 0 mm 2 mps 744 mmHg 99%
21:00 -26°C° 0 mm 2 mps 744 mmHg 99%
22:00 -23°C° 0 mm 1 mps 745 mmHg 99%
23:00 -24°C° 0 mm 1 mps 745 mmHg 99%

Day after tomorrow, 18 January, Monday

Time Temperature Precipitation Wind Pressure Humidity
00:00 -24°C° 0 mm 1 mps 745 mmHg 99%
01:00 -25°C° 0 mm 0 mps 745 mmHg 99%
02:00 -25°C° 0 mm 0 mps 745 mmHg 99%
03:00 -25°C° 0 mm 0 mps 745 mmHg 99%
04:00 -25°C° 0 mm 0 mps 745 mmHg 99%
05:00 -25°C° 0 mm 0 mps 745 mmHg 99%
06:00 -25°C° 0 mm 1 mps 745 mmHg 99%
07:00 -25°C° 0 mm 1 mps 745 mmHg 98%
08:00 -24°C° 0 mm 1 mps 745 mmHg 97%
09:00 -24°C° 0 mm 1 mps 745 mmHg 96%
10:00 -23°C° 0 mm 1 mps 746 mmHg 94%
11:00 -22°C° 0 mm 1 mps 745 mmHg 93%
12:00 -24°C° 0 mm 2 mps 745 mmHg 92%
13:00 -23°C° 0 mm 2 mps 745 mmHg 91%
14:00 -23°C° 0 mm 2 mps 745 mmHg 91%
15:00 -23°C° 0 mm 2 mps 745 mmHg 90%
16:00 -21°C° 0 mm 2 mps 744 mmHg 90%
17:00 -21°C° 0 mm 2 mps 744 mmHg 90%
18:00 -23°C° 0 mm 3 mps 744 mmHg 90%
19:00 -23°C° 0 mm 3 mps 744 mmHg 90%
20:00 -24°C° 0 mm 4 mps 744 mmHg 89%
21:00 -24°C° 0 mm 4 mps 743 mmHg 89%
22:00 -24°C° 0 mm 4 mps 743 mmHg 88%
23:00 -23°C° 0 mm 4 mps 743 mmHg 88%

19 January, Tuesday

Time Temperature Precipitation Wind Pressure Humidity
00:00 -23°C° 0 mm 4 mps 743 mmHg 89%
01:00 -22°C° 0 mm 4 mps 743 mmHg 89%
02:00 -22°C° 0 mm 4 mps 742 mmHg 89%
03:00 -22°C° 0 mm 5 mps 742 mmHg 90%
04:00 -22°C° 0 mm 5 mps 741 mmHg 90%
05:00 -22°C° 0 mm 5 mps 741 mmHg 90%
06:00 -22°C° 0 mm 5 mps 741 mmHg 90%
07:00 -22°C° 0 mm 5 mps 740 mmHg 90%
08:00 -21°C° 0 mm 5 mps 740 mmHg 90%
09:00 -20°C° 0 mm 4 mps 740 mmHg 90%
10:00 -20°C° 0 mm 4 mps 740 mmHg 90%
11:00 -19°C° 0.4 mm 4 mps 740 mmHg 92%
12:00 -19°C° 0.4 mm 4 mps 739 mmHg 93%
13:00 -19°C° 0.4 mm 4 mps 739 mmHg 95%
14:00 -17°C° 0.8 mm 3 mps 739 mmHg 95%
15:00 -17°C° 0.8 mm 3 mps 739 mmHg 95%
16:00 -17°C° 0.8 mm 3 mps 738 mmHg 95%
17:00 -16°C° 0.4 mm 2 mps 738 mmHg 96%
18:00 -16°C° 0.4 mm 2 mps 739 mmHg 96%
19:00 -14°C° 0.4 mm 1 mps 739 mmHg 96%
20:00 -14°C° 0.3 mm 1 mps 739 mmHg 96%
21:00 -14°C° 0.3 mm 1 mps 739 mmHg 96%
22:00 -14°C° 0.3 mm 1 mps 740 mmHg 96%
23:00 -17°C° 0.2 mm 2 mps 740 mmHg 96%

20 January, Wednesday

Time Temperature Precipitation Wind Pressure Humidity
00:00 -18°C° 0.2 mm 3 mps 740 mmHg 96%
01:00 -19°C° 0.2 mm 3 mps 741 mmHg 96%
02:00 -19°C° 0.1 mm 3 mps 741 mmHg 96%
03:00 -21°C° 0.1 mm 3 mps 741 mmHg 96%
04:00 -22°C° 0.1 mm 3 mps 742 mmHg 97%
05:00 -22°C° 0 mm 3 mps 742 mmHg 97%
06:00 -22°C° 0 mm 3 mps 743 mmHg 97%
07:00 -22°C° 0 mm 3 mps 743 mmHg 97%
08:00 -22°C° 0 mm 3 mps 744 mmHg 97%
09:00 -22°C° 0 mm 3 mps 744 mmHg 97%
10:00 -20°C° 0 mm 2 mps 745 mmHg 97%
11:00 -20°C° 0.1 mm 2 mps 745 mmHg 96%
12:00 -22°C° 0.1 mm 3 mps 746 mmHg 96%
13:00 -22°C° 0.1 mm 3 mps 746 mmHg 95%
14:00 -20°C° 0.1 mm 2 mps 747 mmHg 96%
15:00 -21°C° 0.1 mm 2 mps 747 mmHg 96%
16:00 -21°C° 0.1 mm 2 mps 747 mmHg 96%
17:00 -23°C° 0 mm 2 mps 748 mmHg 97%
18:00 -24°C° 0 mm 2 mps 748 mmHg 97%
19:00 -21°C° 0 mm 1 mps 748 mmHg 98%
20:00 -22°C° 0 mm 1 mps 749 mmHg 97%
21:00 -26°C° 0 mm 2 mps 749 mmHg 97%
22:00 -26°C° 0 mm 2 mps 750 mmHg 97%
23:00 -24°C° 0 mm 1 mps 750 mmHg 97%

21 January, Thursday

Time Temperature Precipitation Wind Pressure Humidity
00:00 -25°C° 0 mm 1 mps 750 mmHg 97%
01:00 -27°C° 0 mm 1 mps 750 mmHg 97%
02:00 -27°C° 0 mm 1 mps 750 mmHg 97%
03:00 -27°C° 0 mm 1 mps 751 mmHg 97%
04:00 -28°C° 0 mm 1 mps 751 mmHg 97%
05:00 -28°C° 0 mm 1 mps 751 mmHg 97%
06:00 -28°C° 0 mm 1 mps 752 mmHg 97%
07:00 -28°C° 0 mm 1 mps 752 mmHg 97%
08:00 -28°C° 0 mm 1 mps 752 mmHg 96%
09:00 -26°C° 0 mm 0 mps 753 mmHg 95%
10:00 -26°C° 0 mm 0 mps 753 mmHg 94%
11:00 -25°C° 0 mm 0 mps 753 mmHg 93%
12:00 -23°C° 0 mm 0 mps 753 mmHg 92%
13:00 -22°C° 0 mm 0 mps 753 mmHg 91%
14:00 -22°C° 0 mm 1 mps 753 mmHg 92%
15:00 -22°C° 0 mm 1 mps 753 mmHg 93%
16:00 -22°C° 0 mm 1 mps 753 mmHg 93%
17:00 -25°C° 0 mm 2 mps 753 mmHg 93%
18:00 -25°C° 0 mm 2 mps 753 mmHg 93%
19:00 -26°C° 0 mm 3 mps 753 mmHg 94%
20:00 -26°C° 0 mm 3 mps 753 mmHg 93%
21:00 -27°C° 0 mm 4 mps 752 mmHg 93%
22:00 -26°C° 0 mm 4 mps 752 mmHg 93%
23:00 -27°C° 0 mm 5 mps 751 mmHg 92%
Show more